STARLINK-38057, 69978

Orbit data source: Space-Track

STARLINK-38057, 69978 is a payload satellite owned by SpaceX/Seattle (US) in SSO that was launched on Sat, 11 Jul 2026 UTC via an FALCON 9 launch vehicle from the Air Force Western Test Range (AFWTR). Payload-class satellites include a variety of spacecraft equipped with specific instruments for various scientific and technological missions. These include communications satellites like Starlink; space stations such as the ISS; scientific satellites like the Hubble; Earth observation satellites from companies like Planet Labs, Umbra, and HawkEye 360; GPS; miniature CubeSats for education and research; and military/defense satellites.

Loading next visibility...
Identifier
69978, 2026-159D
Orbit
SSO
Country
Flag of USUS
Related business
Manufacturer
SpaceX/Seattle
Mission
Operational spacecraft
Bus & Motor
STARLINK V2MO, Unknown motor
Mass
575 kg wet, ~530 kg dry
Launch date (UTC)
2026-07-11 (2 months ago)
Launch vehicle
FALCON 9
Launch site
Air Force Western Test Range (AFWTR)
Object type
Payload
Rocket body
Debris
Shape & HBR
BOX + PAN, 17.7 m
Radar Cross Section
Large (>1 m²)

Expand to show TLE details & history
Last TLE update: 23 hours ago

TLE from 23 hours ago
0 STARLINK-38057
1 69978U 26159D   26264.00574777  .00037639  00000-0  69072-3 0  9994
2 69978  97.2850 105.7998 0001958  75.5164 284.6304 15.49175658 12520
Epoch: 2026-09-21T00:08Z
TLE epoch observation values (Epoch: 2026-09-21T00:08:16.607Z)
Latitude
-0.00005°
Longitude
103.83883°
Altitude
421.934 km
Speed
7.658 km/s
True Right ascension
07h 03m 11s
True Declination
0° 00' 00"
Sunlit
Object was in daylight at epoch
Visualization orbit readout
Latitude
Unknown
Longitude
Unknown
Altitude
Unknown
Speed
Unknown
Apparent Right ascension
Unknown
Apparent Declination
Unknown
Sunlit
N/A
Visualization observer readout
Local Sidereal Time
16:24:16
Azimuth
Unknown
Elevation
Unknown
Doppler factor
Unknown
Orbital elements
Apogee altitude
417.388 km
Perigee altitude
414.728 km
Semi-major axis
6,794.195 km
Eccentricity
0.0002
Inclination
97.285°
RAAN
105.7998°
Arg. of periapsis
75.5164°
True anomaly
284.60869°
Mean anomaly
284.6304°
Eccentric anomaly
284.61954°
Mean motion
3.87557 °/min
Orbital period
92.89 mins
BSTAR
0.00069072
Loading maneuver chart data...
Computing Atmospheric mass density...
Loading historical data...
Loading historical data...
Loading historical data...
Loading historical data...
Loading historical data...
Loading historical data...
Loading historical data...

Documentation

Showing up to 5 results
|